CAPE
0 0 0 0 0 0 0 0 0 0 0 0 0 0 0 0 0 0 7 0 1 1 1 18 229 245 300 240 204 428 1021 1361 1515 1526 1446 1360 1369 1497 1430 1484 1200 842 743 780 772 888 885 858 864 941 1279 1332 1130 854 639 672 610 560 497 448 446 694 960
0 0 0 0 0 0 0 0 0 0 0 3 14 0 0 0 0 0 0 0 67 40 0 382 374 430 450 349 295 435 1129 1439 1411 1448 1448 1374 1293 1385 1389 1357 1278 876 704 731 586 658 816 858 801 1120 1477 1542 1321 1035 781 479 514 457 372 410 503 618 737
0 0 0 0 0 0 0 0 0 0 0 0 4 70 0 0 0 0 0 0 7 23 2 237 511 694 771 596 575 714 1210 1345 1382 1434 1509 1454 1334 1231 1109 1213 1277 765 643 724 650 522 594 864 1256 1309 1352 1308 1042 830 799 576 414 388 414 446 608 744 792
0 0 0 0 0 0 0 0 0 0 0 188 36 0 20 0 0 0 0 0 0 327 36 81 169 1030 1349 751 700 793 1040 1281 1374 1442 1491 1484 1357 1117 947 1028 1051 674 538 491 422 422 470 824 916 821 623 702 548 574 666 653 584 589 530 500 766 706 1037
0 0 0 0 0 0 0 0 0 0 0 0 0 0 0 0 8 0 0 0 0 59 232 350 438 1117 1111 930 934 995 1167 1283 1310 1400 1444 1472 1334 1048 854 844 837 685 538 378 307 382 676 857 817 528 417 502 431 402 413 471 651 608 323 336 432 444 750
0 0 0 0 0 0 0 0 0 0 0 0 0 0 0 0 0 0 0 0 0 13 243 725 895 776 746 995 1132 1188 1201 1254 1274 1304 1334 1395 1207 967 888 867 780 610 545 382 304 352 637 616 334 342 487 554 426 321 243 277 217 194 144 325 383 401 558
0 0 0 0 0 0 0 0 0 0 0 21 4 0 0 0 0 0 0 0 0 60 27 88 200 286 386 796 988 1231 1135 1190 1193 1189 1174 1252 1160 1082 1049 910 703 502 541 376 437 612 649 647 753 858 934 592 525 457 394 354 301 282 147 100 331 532 342
0 0 0 0 0 0 0 0 0 0 0 0 0 6 180 0 0 0 0 0 0 36 17 30 103 183 188 470 750 1092 1026 976 973 980 993 1068 1096 1154 1149 1033 723 572 324 448 530 746 859 901 984 972 964 932 768 588 439 401 332 338 274 120 102 254 367
0 0 0 0 0 0 0 0 0 0 0 0 0 0 0 0 0 12 0 0 0 4 0 180 220 256 212 246 333 643 889 824 738 803 895 878 1005 1175 1194 1112 779 572 310 268 577 840 944 970 1017 1181 1135 1122 920 924 732 469 424 292 298 310 188 199 302
0 0 0 2 4 1 0 0 0 0 0 0 0 0 0 0 18 0 0 0 39 92 219 118 328 381 534 416 364 311 500 760 570 623 683 636 863 1120 1218 1096 774 574 382 594 742 889 947 1013 1122 1242 1291 1208 1181 1062 990 728 517 464 343 298 121 120 82
0 0 44 29 10 0 0 0 0 0 0 0 60 118 21 0 5 0 0 12 4 5 4 174 483 608 722 847 484 341 370 335 491 656 564 484 687 938 1151 1068 772 566 447 600 770 925 923 1074 1254 1192 1130 1166 1122 1224 1102 835 632 562 623 604 568 301 134
92 67 0 0 84 0 7 0 0 0 0 0 0 0 41 165 0 0 0 0 0 0 18 142 266 420 788 880 731 473 404 404 405 513 514 356 506 735 959 964 744 484 480 700 813 938 976 1220 1223 1107 1063 1152 1248 1256 1086 970 758 542 516 667 567 320 220
0 0 0 0 0 0 5 1 0 0 0 0 0 66 18 2 0 0 204 0 0 0 0 0 63 346 561 726 865 613 442 396 475 471 383 333 393 566 760 809 682 561 670 723 925 968 1087 1226 1136 1019 991 1023 1114 1160 1035 1152 841 655 756 762 558 365 370
0 0 0 0 0 0 0 0 0 0 0 0 0 18 0 0 12 32 34 0 0 0 0 0 42 103 0 230 368 272 205 204 320 339 412 392 362 496 689 722 552 628 690 887 998 1105 1212 1195 1147 1046 1061 1133 1141 1101 977 781 919 813 851 675 466 362 310
0 0 0 0 0 0 0 0 0 0 0 0 0 0 0 0 0 0 0 0 5 11 0 0 32 54 0 1 12 48 149 234 270 337 416 474 395 465 665 636 572 594 724 918 1092 1122 1226 1236 1272 1184 1211 1218 1318 999 852 829 966 902 681 524 432 340 353
0 0 0 0 0 0 0 0 0 0 0 0 0 0 25 0 6 112 6 0 0 39 26 0 0 0 14 33 182 170 152 152 297 322 431 521 497 440 548 556 620 622 691 877 1025 1139 1297 1457 1356 1266 1246 1337 1396 1176 1053 986 808 698 513 310 236 311 302
30 0 0 0 0 0 0 0 0 0 0 0 0 0 0 1 4 0 0 0 1 49 257 45 298 120 118 141 135 177 118 188 264 371 474 567 595 532 566 700 658 642 680 856 1070 1217 1502 1412 1337 1256 1382 1368 1318 1359 1331 1245 974 673 457 300 397 385 400
15 0 0 0 0 0 0 44 12 8 0 0 0 0 0 0 0 0 0 4 27 54 13 8 86 328 368 246 160 74 201 232 326 374 517 594 619 584 584 659 597 678 882 930 1056 1286 1521 1420 1158 1298 1328 1412 1402 1477 1325 1102 755 714 613 606 516 365 448
3 0 4 0 0 4 114 0 0 0 0 4 3 79 68 44 9 0 0 0 13 42 19 9 104 52 24 4 2 8 0 177 397 462 478 586 617 589 642 712 663 864 1024 1106 1170 1194 1182 1099 1027 1103 1222 1180 1251 1134 937 732 666 652 616 608 560 498 486
4 12 12 0 0 0 0 4 0 0 0 0 0 0 0 2 0 13 0 0 42 102 7 3 0 3 12 4 38 66 45 58 248 385 452 516 558 690 683 738 771 1074 1063 1092 1067 1172 1142 1002 922 843 1038 1002 887 982 977 782 761 614 610 577 530 602 604
36 56 16 12 88 1 11 0 8 0 47 13 4 0 2 336 130 0 3 80 202 53 20 10 6 2 6 118 373 29 14 34 102 291 410 358 494 632 757 798 1017 1215 1223 1243 1227 1351 1158 927 884 876 857 874 862 1021 924 742 754 664 525 544 600 694 718
8 25 11 3 0 0 24 378 441 3 5 20 243 0 0 244 178 2 45 102 483 374 55 24 56 82 280 329 499 328 4 15 60 115 278 214 408 647 659 751 882 1095 968 917 916 828 838 812 834 926 915 802 959 1101 1024 950 760 676 684 671 784 877 869
0 0 1 7 4 30 228 200 114 0 0 0 0 0 0 327 535 41 0 112 396 318 251 238 125 274 144 130 214 464 65 28 20 72 51 44 66 261 390 426 574 683 832 810 690 708 749 805 854 920 930 792 915 1036 1120 952 804 825 920 1017 1033 1009 1020
8 21 0 0 0 0 78 67 16 0 0 0 0 0 0 236 192 78 26 234 500 349 364 246 398 482 158 107 388 181 108 95 111 259 328 232 183 252 379 408 626 955 892 742 708 727 782 917 1006 928 794 837 866 1063 1044 939 965 1010 1115 1236 1461 1249 1036
0 0 0 0 0 0 0 0 0 0 0 0 0 0 0 272 404 184 239 542 718 537 383 281 474 789 956 700 246 5 86 102 150 208 354 418 374 376 172 208 360 457 670 731 1002 1124 1040 1161 967 724 677 837 1070 1292 1436 1372 1207 1174 1326 1484 1242 1029 980
0 0 0 0 0 0 0 0 0 0 0 0 0 7 587 465 346 140 257 494 493 461 602 461 850 434 29 27 40 55 133 318 510 247 197 152 96 144 313 467 746 623 447 687 849 850 1108 851 656 661 794 976 1266 1454 1469 1386 1406 1362 1546 1232 1046 1024 1101
0 0 0 0 0 0 0 0 0 0 0 0 493 538 54 15 569 245 130 351 414 403 625 420 576 261 2 27 174 166 303 441 526 424 235 280 320 234 292 423 637 685 717 668 713 798 659 436 505 590 701 1068 1334 1398 1349 1445 1542 1540 1284 1054 1026 1117 1176
0 0 0 0 25 0 0 0 0 2 0 95 0 11 48 209 54 312 456 399 434 399 760 247 221 308 380 266 484 532 474 488 598 644 677 705 629 564 359 238 510 734 993 1055 958 860 298 471 535 629 810 1134 1364 1363 1392 1590 1468 1140 876 849 991 1064 1201
0 0 0 87 25 0 0 0 0 70 71 0 1 1 14 482 223 178 423 629 344 362 655 428 471 277 478 696 630 1038 860 638 500 752 871 735 746 681 536 260 379 458 797 1214 1127 844 610 672 799 856 817 1087 1328 1330 1550 1561 1108 940 912 1038 1259 1287 1402
0 0 0 0 0 0 0 0 0 0 0 0 0 0 24 70 304 184 347 507 241 196 494 410 406 659 606 565 270 397 420 661 684 586 582 547 577 387 338 371 306 306 492 626 714 870 879 698 768 771 863 925 1200 1374 1497 1092 999 911 1032 1104 1132 1163 1265
0 0 20 0 0 0 0 0 0 0 0 0 0 2 0 108 48 22 62 313 285 166 196 623 550 644 338 540 768 934 862 798 996 696 997 1028 579 640 724 595 350 399 536 555 690 735 783 663 459 422 680 682 920 1178 916 856 816 989 997 968 1024 1287 1462
0 3 23 0 0 0 0 0 0 0 1 0 2 45 167 99 18 86 85 113 130 124 189 567 716 517 372 605 847 1012 1180 1251 1112 1056 1364 1038 843 524 201 139 187 365 588 734 739 815 796 864 452 313 370 541 544 573 401 448 442 677 752 936 1128 1242 1086
0 7 28 0 0 50 30 0 0 0 0 8 3 0 1 1 22 2 9 69 38 6 271 416 642 514 697 909 1006 222 670 755 726 983 1216 1001 784 464 315 199 237 466 726 721 872 879 795 423 182 174 179 160 181 376 466 443 681 890 1131 1232 1098 1065 814
0 0 0 0 0 0 0 0 0 4 0 0 35 0 3 57 85 56 12 4 4 4 113 332 462 795 662 520 586 46 400 776 998 1159 1002 858 474 333 128 52 168 435 442 528 669 559 535 203 241 286 292 336 324 234 430 645 868 1057 1140 978 806 462 462
0 0 0 0 0 0 0 0 1 0 0 0 72 326 183 153 192 114 90 7 6 4 8 204 544 666 842 742 1119 619 168 911 1201 1042 768 551 346 215 196 124 239 273 409 340 383 283 233 182 228 324 383 364 536 410 742 707 684 1046 901 788 567 424 458
0 0 0 0 0 0 0 0 0 0 2 0 0 6 7 8 10 5 206 138 7 61 248 92 559 1063 1257 973 685 600 605 478 298 332 305 350 351 332 316 286 298 311 351 377 383 499 453 409 429 446 305 302 569 281 482 504 720 876 819 740 682 606 520
0 0 0 0 0 0 0 0 0 0 50 8 0 5 10 13 11 7 67 338 536 344 304 370 136 156 558 346 257 588 511 364 260 219 540 540 374 348 265 270 339 405 442 419 440 443 485 438 400 366 359 404 406 250 524 526 633 730 844 607 290 294 525
Wind_Speed
nan nan nan nan nan nan nan nan nan nan nan nan nan nan nan nan nan nan nan nan nan nan nan nan 14 13 12 16 15 17 20 22 25 24 26 27 27 28 28 29 29 28 27 28 30 32 33 33 34 34 34 34 34 35 36 35 33 32 33 34 34 34 32
nan nan nan nan nan nan nan nan nan nan nan nan nan nan nan nan nan nan nan nan nan nan nan 19 16 15 15 17 18 19 22 25 25 25 27 28 28 30 30 30 31 30 30 31 31 33 34 35 35 35 35 34 34 35 36 35 33 32 35 35 35 34 33
nan nan nan nan nan nan nan nan nan nan nan nan nan nan nan nan nan nan nan nan nan nan nan 19 18 18 19 20 21 22 23 24 24 26 27 28 29 31 31 32 32 32 31 31 33 34 34 34 34 34 35 35 35 35 35 33 32 32 34 35 35 35 34
nan nan nan nan nan nan nan nan nan nan nan 17 nan nan nan nan nan nan nan nan nan 16 nan nan 19 19 23 25 23 23 24 24 24 26 28 30 31 32 33 33 33 33 32 32 34 35 35 35 35 34 35 35 36 37 36 34 32 33 35 36 36 35 35
nan nan nan nan nan nan nan nan nan nan nan nan nan nan nan nan nan nan nan nan nan nan 17 20 17 20 23 26 24 22 22 22 23 24 27 30 32 33 33 34 34 34 34 34 34 35 34 34 34 34 35 35 36 37 37 35 34 34 36 36 37 36 36
nan nan nan nan nan nan nan nan nan nan nan nan nan nan nan nan nan nan nan nan nan nan 17 18 18 19 20 22 23 22 22 22 23 24 26 29 31 33 34 34 35 34 34 35 35 35 35 35 35 35 35 36 37 37 36 35 34 35 35 37 37 36 36
nan nan nan nan nan nan nan nan nan nan nan nan nan nan nan nan nan nan nan nan nan nan nan nan 16 17 16 18 21 21 22 23 24 25 27 29 31 32 33 34 34 34 35 36 37 38 37 36 36 36 37 37 37 38 37 36 35 35 36 nan 38 38 36
nan nan nan nan nan nan nan nan nan nan nan nan nan nan 20 nan nan nan nan nan nan nan nan nan 16 16 15 17 20 21 23 25 26 27 28 30 32 32 33 33 33 34 35 36 37 38 37 37 37 37 37 38 38 37 37 37 36 36 37 38 38 38 38
nan nan nan nan nan nan nan nan nan nan nan nan nan nan nan nan nan nan nan nan nan nan nan 18 18 18 18 19 21 22 23 26 27 28 29 31 32 33 33 34 34 35 36 37 38 39 38 37 38 38 38 38 38 38 39 37 36 36 38 39 38 38 38
nan nan nan nan nan nan nan nan nan nan nan nan nan nan nan nan nan nan nan nan nan nan 17 18 20 20 18 20 22 24 24 25 28 29 31 32 32 33 34 34 35 36 36 37 39 39 38 38 39 39 39 39 39 39 39 38 37 38 39 39 38 38 nan
nan nan nan nan nan nan nan nan nan nan nan nan nan 26 nan nan nan nan nan nan nan nan nan 20 22 23 20 22 25 25 27 27 28 30 31 31 31 33 35 35 35 36 37 38 39 39 39 39 40 40 39 39 40 40 39 39 39 39 40 40 40 40 39
nan nan nan nan nan nan nan nan nan nan nan nan nan nan nan 32 nan nan nan nan nan nan nan 21 21 23 22 22 23 24 25 28 29 31 32 33 32 32 34 35 36 37 38 39 39 39 39 39 40 39 39 40 40 41 40 40 41 41 42 42 42 41 41
nan nan nan nan nan nan nan nan nan nan nan nan nan nan nan nan nan nan 33 nan nan nan nan nan nan 24 24 22 24 25 26 30 32 34 34 33 34 35 35 35 36 37 39 39 39 39 38 39 39 39 40 40 41 41 41 41 42 42 44 44 44 43 43
nan nan nan nan nan nan nan nan nan nan nan nan nan nan nan nan nan nan nan nan nan nan nan nan nan 27 nan 23 26 28 29 31 33 33 33 34 35 37 37 37 37 37 39 40 39 39 37 38 38 39 40 41 42 43 43 43 43 44 46 46 45 44 44
nan nan nan nan nan nan nan nan nan nan nan nan nan nan nan nan nan nan nan nan nan nan nan nan nan nan nan nan nan nan 29 33 34 34 34 34 36 36 37 38 38 38 40 39 39 38 37 37 38 40 41 42 43 43 44 45 46 46 48 47 47 46 45
nan nan nan nan nan nan nan nan nan nan nan nan nan nan nan nan nan 42 nan nan nan nan nan nan nan nan nan nan 28 30 31 32 33 33 35 36 36 36 38 38 39 40 40 39 38 37 37 38 39 41 42 43 45 45 46 46 47 48 49 48 47 46 45
nan nan nan nan nan nan nan nan nan nan nan nan nan nan nan nan nan nan nan nan nan nan 29 nan 24 27 24 25 28 31 32 32 32 33 35 36 36 37 38 39 40 40 40 39 38 37 38 39 40 41 44 45 45 47 48 48 49 49 48 47 46 45 45
nan nan nan nan nan nan nan nan nan nan nan nan nan nan nan nan nan nan nan nan nan nan nan nan nan 24 26 28 29 nan 31 33 31 31 33 35 35 36 37 37 39 39 38 38 37 37 39 40 41 43 45 46 45 47 48 50 50 49 48 47 46 44 45
nan nan nan nan nan nan 40 nan nan nan nan nan nan nan nan nan nan nan nan nan nan nan nan nan 26 nan nan nan nan nan nan 31 32 33 33 35 36 36 36 36 37 38 38 38 38 38 38 40 42 45 45 46 46 47 49 50 50 49 47 46 45 45 45
nan nan nan nan nan nan nan nan nan nan nan nan nan nan nan nan nan nan nan nan nan 28 nan nan nan nan nan nan nan nan nan nan 32 34 33 34 35 35 35 37 38 38 38 38 39 39 41 43 44 45 46 47 48 48 50 49 49 48 47 46 46 46 47
nan nan nan nan nan nan nan nan nan nan nan nan nan nan nan 35 34 nan nan nan 28 nan nan nan nan nan nan 28 28 nan nan nan 31 31 33 35 35 35 36 37 38 38 38 38 39 41 43 43 45 46 47 49 49 49 50 48 48 48 48 47 47 48 49
nan nan nan nan nan nan nan 36 41 nan nan nan 43 nan nan 32 29 nan nan 26 27 28 nan nan nan nan 28 27 30 32 nan nan nan 31 32 35 35 35 37 36 36 37 37 38 40 41 41 43 45 47 49 50 50 50 48 48 48 48 48 47 48 49 49
nan nan nan nan nan nan 41 32 34 nan nan nan nan nan nan 27 26 nan nan 25 27 28 29 30 28 28 25 26 29 31 nan nan nan nan nan nan nan 34 34 35 36 36 38 40 40 41 42 42 46 50 51 51 50 50 48 47 47 48 48 47 48 49 48
nan nan nan nan nan nan nan nan nan nan nan nan nan nan nan 27 29 nan nan 27 28 30 30 31 28 26 25 28 29 31 32 nan 34 36 37 35 34 33 33 33 34 36 40 41 40 41 42 43 49 52 52 50 50 50 49 48 48 48 47 47 48 48 47
nan nan nan nan nan nan nan nan nan nan nan nan nan nan nan 34 30 31 30 27 30 33 33 31 29 26 27 29 31 nan nan 35 34 34 34 33 34 35 35 34 36 37 38 40 40 42 43 46 50 52 52 51 50 50 49 48 47 46 46 48 48 46 46
nan nan nan nan nan nan nan nan nan nan nan nan nan nan 35 34 32 30 29 29 32 33 33 32 30 32 nan nan nan nan 34 34 35 35 36 36 nan 34 34 36 38 38 39 40 39 39 43 48 49 51 52 51 50 51 49 47 46 46 47 47 47 46 45
nan nan nan nan nan nan nan nan nan nan nan nan 36 35 nan nan 32 35 32 31 33 34 34 34 31 32 nan nan 33 32 33 34 36 36 37 37 36 36 36 35 36 39 40 40 40 41 45 48 50 51 52 51 51 51 48 46 47 47 47 47 46 45 44
nan nan nan nan nan nan nan nan nan nan nan nan nan nan nan 36 nan 36 37 34 36 35 38 39 34 32 33 33 33 33 33 33 35 36 35 35 34 35 34 35 38 39 38 39 40 45 47 49 50 52 52 51 50 49 46 46 48 48 48 47 47 45 44
nan nan nan nan nan nan nan nan nan nan nan nan nan nan nan 34 35 38 37 38 39 37 40 42 40 37 32 34 34 34 35 35 35 36 36 35 35 35 36 37 40 39 37 37 40 44 47 48 50 50 50 49 48 46 44 47 47 48 48 47 46 45 44
nan nan nan nan nan nan nan nan nan nan nan nan nan nan nan nan 36 38 38 40 42 41 41 44 39 38 38 36 36 35 36 37 37 37 37 37 36 36 36 37 39 38 39 39 41 42 46 49 49 49 47 46 46 43 46 47 47 48 47 45 43 42 42
nan nan nan nan nan nan nan nan nan nan nan nan nan nan nan 36 nan nan nan 40 43 44 44 43 44 42 41 40 39 37 37 38 39 38 38 38 38 37 37 40 41 41 41 41 42 44 44 49 49 48 47 45 44 44 46 47 47 47 45 43 41 42 41
nan nan nan nan nan nan nan nan nan nan nan nan nan nan 42 nan nan nan nan 44 45 45 43 42 43 43 42 42 41 39 39 39 39 38 38 38 39 39 40 41 41 41 43 43 43 44 44 48 49 47 47 46 45 44 44 45 45 45 42 41 41 41 41
nan nan nan nan nan nan nan nan nan nan nan nan nan nan nan nan nan nan nan nan nan nan 43 44 44 45 41 42 42 42 42 41 40 39 39 40 39 40 41 41 42 42 42 41 41 43 45 48 48 48 47 46 45 45 44 44 44 42 42 42 42 41 41
nan nan nan nan nan nan nan nan nan nan nan nan nan nan nan nan nan nan nan nan nan nan 43 43 43 44 42 41 42 nan 43 42 42 42 43 42 42 42 42 nan 43 42 42 41 42 44 47 48 47 47 46 46 45 44 44 44 43 41 42 42 42 41 41
nan nan nan nan nan nan nan nan nan nan nan nan nan 42 44 43 44 45 nan nan nan nan nan 38 41 44 43 44 44 45 45 43 43 44 45 44 44 45 47 47 46 44 44 45 46 47 47 47 46 45 45 45 44 43 43 42 41 42 42 42 41 40 40
nan nan nan nan nan nan nan nan nan nan nan nan nan nan nan nan nan nan 42 44 nan nan 42 nan 42 44 47 49 48 47 46 46 46 46 47 47 47 49 50 48 47 46 46 47 47 48 49 47 46 45 44 43 43 43 42 41 41 42 43 42 40 39 38
nan nan nan nan nan nan nan nan nan nan nan nan nan nan nan nan nan nan nan 41 41 45 45 45 47 47 49 50 47 47 48 48 48 50 52 53 53 52 52 52 50 49 49 49 50 50 48 47 46 44 43 43 42 41 40 41 42 43 43 42 39 37 37
Wind_Direction
nan nan nan nan nan nan nan nan nan nan nan nan nan nan nan nan nan nan nan nan nan nan nan nan 288 286 290 285 288 288 286 289 294 298 301 305 306 306 306 309 309 312 311 312 314 316 316 318 321 325 325 323 322 316 314 313 312 314 318 319 317 316 316
nan nan nan nan nan nan nan nan nan nan nan nan nan nan nan nan nan nan nan nan nan nan nan 288 295 304 306 303 307 304 294 293 298 301 301 304 308 309 307 305 306 309 311 313 313 313 316 319 323 325 325 322 318 315 314 314 313 316 318 318 318 317 317
nan nan nan nan nan nan nan nan nan nan nan nan nan nan nan nan nan nan nan nan nan nan nan 282 294 305 313 312 309 308 305 302 303 302 303 301 303 303 304 307 305 307 309 311 311 313 314 316 320 321 320 320 318 314 313 314 314 314 315 315 316 316 317
nan nan nan nan nan nan nan nan nan nan nan 267 nan nan nan nan nan nan nan nan nan 297 nan nan 285 299 302 308 312 319 319 313 303 301 301 302 305 306 305 305 306 307 309 311 312 313 315 318 319 318 320 319 320 316 315 315 314 314 316 318 317 318 317
nan nan nan nan nan nan nan nan nan nan nan nan nan nan nan nan nan nan nan nan nan nan 293 289 292 294 307 315 319 319 318 315 309 303 301 302 304 303 303 302 304 306 307 308 308 310 311 313 313 316 318 319 317 315 317 317 316 316 318 318 318 319 318
nan nan nan nan nan nan nan nan nan nan nan nan nan nan nan nan nan nan nan nan nan nan 288 296 285 286 303 316 317 316 319 316 311 305 306 302 299 299 299 301 304 305 305 306 306 307 308 311 315 317 315 315 316 318 318 317 316 316 318 318 319 320 319
nan nan nan nan nan nan nan nan nan nan nan nan nan nan nan nan nan nan nan nan nan nan nan nan 285 288 299 307 310 309 309 312 310 305 303 298 294 295 299 301 303 303 304 307 308 311 312 314 313 313 312 314 316 318 319 318 317 318 319 nan 318 319 320
nan nan nan nan nan nan nan nan nan nan nan nan nan nan 301 nan nan nan nan nan nan nan nan nan 289 294 294 298 309 313 306 304 304 303 301 294 290 291 294 298 298 298 302 302 303 307 309 311 312 313 312 312 314 317 319 319 319 318 318 320 321 320 320
nan nan nan nan nan nan nan nan nan nan nan nan nan nan nan nan nan nan nan nan nan nan nan 285 290 296 306 312 312 311 309 305 306 305 298 291 292 293 297 298 297 298 301 304 305 307 309 311 312 310 310 312 315 318 319 319 317 317 317 319 320 321 321
nan nan nan nan nan nan nan nan nan nan nan nan nan nan nan nan nan nan nan nan nan nan 289 292 295 297 307 309 308 310 309 303 303 302 299 295 296 298 298 298 299 303 303 302 303 307 309 312 312 310 309 312 315 317 318 318 316 315 317 319 321 321 nan
nan nan nan nan nan nan nan nan nan nan nan nan nan 281 nan nan nan nan nan nan nan nan nan 297 301 306 312 308 308 310 307 304 298 295 295 297 297 298 301 301 298 297 298 304 306 309 312 313 310 308 310 313 314 315 317 317 314 315 316 318 320 321 322
nan nan nan nan nan nan nan nan nan nan nan nan nan nan nan 293 nan nan nan nan nan nan nan 302 305 306 304 302 303 305 304 303 303 300 296 293 293 294 294 296 299 301 302 303 307 310 311 310 307 307 308 310 312 314 317 316 315 316 316 318 321 321 321
nan nan nan nan nan nan nan nan nan nan nan nan nan nan nan nan nan nan 298 nan nan nan nan nan nan 296 299 303 305 306 303 298 296 295 298 302 304 302 302 300 299 301 303 305 307 307 309 307 307 308 307 308 310 312 315 315 315 317 317 318 320 321 321
nan nan nan nan nan nan nan nan nan nan nan nan nan nan nan nan nan nan nan nan nan nan nan nan nan 285 nan 290 285 291 298 302 300 301 302 304 302 302 302 301 302 302 303 303 305 306 306 307 306 306 306 309 312 315 317 317 317 317 315 318 319 320 321
nan nan nan nan nan nan nan nan nan nan nan nan nan nan nan nan nan nan nan nan nan nan nan nan nan nan nan nan nan nan 298 299 302 302 302 301 300 300 300 300 301 300 300 302 303 304 306 306 306 306 307 311 313 317 318 319 318 317 315 317 318 319 321
nan nan nan nan nan nan nan nan nan nan nan nan nan nan nan nan nan 298 nan nan nan nan nan nan nan nan nan nan 297 297 297 299 300 303 302 300 300 301 301 300 298 298 301 302 303 306 306 305 305 306 309 312 313 317 317 317 317 315 314 315 317 318 319
nan nan nan nan nan nan nan nan nan nan nan nan nan nan nan nan nan nan nan nan nan nan 286 nan 288 290 289 292 294 295 295 297 301 302 302 301 300 300 299 299 300 300 302 303 304 305 303 303 306 310 310 311 315 316 316 315 313 313 314 315 315 317 317
nan nan nan nan nan nan nan nan nan nan nan nan nan nan nan nan nan nan nan nan nan nan nan nan nan 284 287 284 282 nan 291 294 296 296 296 297 297 297 298 299 300 299 296 296 300 304 304 306 308 307 309 312 313 313 313 311 312 313 313 314 315 317 317
nan nan nan nan nan nan 266 nan nan nan nan nan nan nan nan nan nan nan nan nan nan nan nan nan 291 nan nan nan nan nan nan 294 292 295 294 294 295 298 298 296 295 295 297 297 298 299 302 305 305 305 307 310 310 310 311 311 311 312 313 314 315 317 318
nan nan nan nan nan nan nan nan nan nan nan nan nan nan nan nan nan nan nan nan nan 292 nan nan nan nan nan nan nan nan nan nan 292 291 293 296 296 297 296 297 296 295 296 300 303 304 300 300 303 305 308 309 312 313 310 311 312 312 313 314 316 318 319
nan nan nan nan nan nan nan nan nan nan nan nan nan nan nan 289 294 nan nan nan 294 nan nan nan nan nan nan 282 284 nan nan nan 292 294 294 297 299 298 295 296 297 297 298 298 298 294 295 300 303 307 309 310 312 312 311 312 312 313 313 316 319 320 321
nan nan nan nan nan nan nan 275 271 nan nan nan 278 nan nan 287 294 nan nan 297 293 292 nan nan nan nan 283 283 283 286 nan nan nan 290 286 286 286 286 289 288 287 289 290 290 290 294 299 303 306 307 309 311 311 311 312 313 314 315 316 319 320 320 321
nan nan nan nan nan nan 268 275 270 nan nan nan nan nan nan 287 289 nan nan 300 296 299 296 292 291 289 289 286 281 282 nan nan nan nan nan nan nan 291 293 296 296 294 292 293 293 295 300 306 309 309 310 311 312 313 313 315 315 315 317 319 319 320 321
nan nan nan nan nan nan nan nan nan nan nan nan nan nan nan 281 287 nan nan 301 300 297 294 294 294 294 294 289 281 282 291 nan 291 292 291 290 290 292 293 293 292 289 287 289 295 301 306 312 308 308 308 310 314 313 315 315 315 316 318 319 317 317 319
nan nan nan nan nan nan nan nan nan nan nan nan nan nan nan 283 285 292 297 298 296 296 298 299 295 291 280 280 281 nan nan 290 290 289 290 290 289 292 296 297 294 292 294 297 302 307 307 304 304 306 308 312 314 314 314 314 316 316 317 314 315 318 319
nan nan nan nan nan nan nan nan nan nan nan nan nan nan 275 280 288 290 292 291 292 298 300 297 288 288 nan nan nan nan 293 293 290 291 289 288 nan 290 291 291 294 295 297 300 303 305 304 302 305 307 310 313 313 312 312 315 316 314 314 314 316 318 319
nan nan nan nan nan nan nan nan nan nan nan nan 271 273 nan nan 283 291 292 293 295 298 295 293 289 288 nan nan 283 287 288 287 289 290 291 293 295 295 293 292 296 296 297 301 306 306 302 305 306 308 311 313 312 311 313 316 313 312 312 314 316 317 318
nan nan nan nan nan nan nan nan nan nan nan nan nan nan nan 283 nan 291 291 293 296 300 296 296 292 288 285 280 281 281 282 282 280 283 286 287 287 288 290 290 289 295 298 301 301 299 301 304 307 309 312 312 310 311 316 313 310 311 313 316 317 318 317
nan nan nan nan nan nan nan nan nan nan nan nan nan nan nan 279 286 287 289 293 294 297 294 293 291 287 284 281 282 281 281 283 283 283 284 285 284 282 281 282 283 290 297 299 298 299 301 305 306 308 310 311 310 314 314 310 311 315 317 317 317 316 316
nan nan nan nan nan nan nan nan nan nan nan nan nan nan nan nan 282 286 287 287 289 290 287 289 285 284 285 283 282 279 278 279 279 279 280 281 283 285 286 289 291 295 298 301 301 302 303 305 306 307 310 311 315 316 309 310 314 317 318 317 316 315 314
nan nan nan nan nan nan nan nan nan nan nan nan nan nan nan 280 nan nan nan 280 284 286 286 287 287 284 285 285 283 281 281 282 283 285 286 288 290 291 292 292 293 297 301 302 303 303 304 305 307 309 311 313 313 310 311 313 316 316 316 315 314 313 312
nan nan nan nan nan nan nan nan nan nan nan nan nan nan 277 nan nan nan nan 277 278 280 283 284 284 285 287 287 285 285 284 284 286 288 290 291 292 293 293 294 297 300 302 303 303 304 303 303 305 308 310 313 313 314 315 316 315 313 313 314 313 312 310
nan nan nan nan nan nan nan nan nan nan nan nan nan nan nan nan nan nan nan nan nan nan 281 282 284 285 285 283 285 288 287 289 291 292 291 290 289 288 291 294 299 301 300 300 300 301 301 301 305 307 310 311 312 313 314 313 312 313 312 311 311 309 308
nan nan nan nan nan nan nan nan nan nan nan nan nan nan nan nan nan nan nan nan nan nan 281 284 284 284 282 282 285 nan 290 291 291 290 289 288 289 289 289 nan 294 296 296 296 298 301 301 301 304 306 308 309 309 310 310 310 310 310 308 308 308 309 308
nan nan nan nan nan nan nan nan nan nan nan nan nan 271 275 276 275 277 nan nan nan nan nan 276 280 282 284 288 288 289 291 290 288 285 285 288 289 289 290 292 295 296 296 296 298 300 301 303 305 307 307 307 307 307 306 306 306 306 306 306 307 308 307
nan nan nan nan nan nan nan nan nan nan nan nan nan nan nan nan nan nan 274 278 nan nan 276 nan 273 279 284 286 289 291 288 285 287 288 289 290 290 289 290 292 294 295 296 296 298 299 301 303 305 306 306 306 305 304 303 303 303 304 305 305 305 305 304
nan nan nan nan nan nan nan nan nan nan nan nan nan nan nan nan nan nan nan 273 274 280 281 280 279 279 284 284 285 285 285 286 287 288 289 290 289 289 291 293 294 295 296 296 298 300 302 304 306 306 307 305 303 303 303 304 305 305 305 305 306 306 307